This is the latest recevied weather packets stored in our database for station/object KD8UTJ. If no packets are shown the sender has not sent any weather packets the latest 10 day(s).
| Time | Temp. | Humidity | Pressure | Rain* | Wind** | Luminosity | Snow |
|---|---|---|---|---|---|---|---|
| 1777230721 | 28.89° C | 58% | 1012.1 hPa | 0 mm | - | 241 W/m² | - |
| 1777230416 | 29.44° C | 57% | 1012.3 hPa | 0 mm | - | 527 W/m² | - |
| 1777230113 | 30° C | 56% | 1012.3 hPa | 0 mm | - | 634 W/m² | - |
| 1777229809 | 30° C | 58% | 1012.3 hPa | 0 mm | - | 997 W/m² | - |
| 1777229506 | 28.89° C | 58% | 1012.4 hPa | 0 mm | - | 507 W/m² | - |
| 1777229203 | 28.89° C | 56% | 1012.5 hPa | 0 mm | - | 226 W/m² | - |
| 1777228900 | 28.89° C | 56% | 1012.6 hPa | 0 mm | - | 425 W/m² | - |
| 1777228595 | 28.89° C | 58% | 1012.5 hPa | 0 mm | - | 771 W/m² | - |
| 1777228292 | 28.89° C | 57% | 1012.6 hPa | 0 mm | - | 831 W/m² | - |
| 1777227987 | 28.89° C | 57% | 1012.8 hPa | 0 mm | - | 787 W/m² | - |
| 1777227687 | 28.89° C | 59% | 1012.7 hPa | 0 mm | - | 818 W/m² | - |
| 1777227383 | 28.89° C | 59% | 1012.8 hPa | 0 mm | - | 763 W/m² | - |
| 1777227079 | 28.89° C | 57% | 1012.8 hPa | 0 mm | - | 803 W/m² | - |
| 1777226776 | 28.89° C | 59% | 1013 hPa | 0 mm | - | 827 W/m² | - |
| 1777226475 | 28.89° C | 60% | 1013 hPa | 0 mm | - | 227 W/m² | - |
| 1777226171 | 28.89° C | 61% | 1013.4 hPa | 0 mm | - | 854 W/m² | - |
| 1777225867 | 28.89° C | 59% | 1013.2 hPa | 0 mm | - | 274 W/m² | - |
| 1777225563 | 28.33° C | 60% | 1013.3 hPa | 0 mm | - | 841 W/m² | - |
| 1777225260 | 28.89° C | 59% | 1013.3 hPa | 0 mm | - | 840 W/m² | - |
| 1777224957 | 27.78° C | 60% | 1013.5 hPa | 0 mm | - | 906 W/m² | - |
| 1777224655 | 28.33° C | 61% | 1013.3 hPa | 0 mm | - | 200 W/m² | - |
| 1777224349 | 28.33° C | 61% | 1013.5 hPa | 0 mm | - | 878 W/m² | - |
| 1777224045 | 27.78° C | 59% | 1013.5 hPa | 0 mm | - | 882 W/m² | - |
| 1777223743 | 27.78° C | 62% | 1013.5 hPa | 0 mm | - | 151 W/m² | - |
| 1777223438 | 27.78° C | 63% | 1013.4 hPa | 0 mm | - | 866 W/m² | - |
* Rain latest hour (hover to see other rain measurements)
** Current wind speed in m/s (hover to see current wind gust speed)